• în Republica Moldova
  • Lista ţărilor
  • Pe 7 zile
  • Temperatura apei
  • Hartă satelitară
  • Meteo pe hartă
  • Widget-uri
  • user-avatar
    Intrare

    Meteo pe oră la Eisenstadt

    Astăzi, 14 August, Marţi

    Timp Temperatura Precipitaţii Vânt Presiune Umiditate
    00:00 +20°C° 0,1 mm 2 m/s 718 mmHg 76%
    01:00 +19°C° 0 mm 3 m/s 719 mmHg 78%
    02:00 +19°C° 0,1 mm 3 m/s 719 mmHg 79%
    03:00 +18°C° 0,1 mm 3 m/s 719 mmHg 81%
    04:00 +18°C° 0,1 mm 2 m/s 719 mmHg 82%
    05:00 +19°C° 0 mm 3 m/s 719 mmHg 79%
    06:00 +20°C° 0 mm 3 m/s 720 mmHg 76%
    07:00 +21°C° 0 mm 3 m/s 720 mmHg 73%
    08:00 +22°C° 0,2 mm 3 m/s 720 mmHg 69%
    09:00 +23°C° 0,2 mm 4 m/s 720 mmHg 66%
    10:00 +25°C° 0,2 mm 4 m/s 721 mmHg 62%
    11:00 +23°C° 1,1 mm 4 m/s 721 mmHg 66%
    12:00 +22°C° 1,1 mm 4 m/s 721 mmHg 69%
    13:00 +22°C° 1,1 mm 4 m/s 721 mmHg 72%
    14:00 +21°C° 1,8 mm 3 m/s 721 mmHg 77%
    15:00 +20°C° 1,8 mm 3 m/s 721 mmHg 82%
    16:00 +19°C° 1,8 mm 3 m/s 721 mmHg 86%
    17:00 +18°C° 1,6 mm 3 m/s 721 mmHg 87%
    18:00 +18°C° 1,6 mm 3 m/s 721 mmHg 88%
    19:00 +18°C° 1,6 mm 3 m/s 721 mmHg 89%
    20:00 +17°C° 0,3 mm 3 m/s 721 mmHg 88%
    21:00 +17°C° 0,3 mm 3 m/s 722 mmHg 88%
    22:00 +17°C° 0,3 mm 3 m/s 722 mmHg 87%
    23:00 +17°C° 0 mm 3 m/s 722 mmHg 87%

    Mâine, 15 August, Miercuri

    Timp Temperatura Precipitaţii Vânt Presiune Umiditate
    00:00 +17°C° 0 mm 3 m/s 722 mmHg 86%
    01:00 +17°C° 0 mm 3 m/s 723 mmHg 86%
    02:00 +16°C° 0 mm 3 m/s 723 mmHg 86%
    03:00 +16°C° 0 mm 3 m/s 723 mmHg 86%
    04:00 +16°C° 0 mm 3 m/s 723 mmHg 86%
    05:00 +17°C° 0 mm 3 m/s 723 mmHg 83%
    06:00 +18°C° 0 mm 4 m/s 723 mmHg 81%
    07:00 +19°C° 0 mm 4 m/s 724 mmHg 78%
    08:00 +20°C° 0 mm 4 m/s 724 mmHg 70%
    09:00 +22°C° 0 mm 4 m/s 724 mmHg 62%
    10:00 +23°C° 0 mm 5 m/s 725 mmHg 54%
    11:00 +25°C° 0 mm 5 m/s 724 mmHg 50%
    12:00 +26°C° 0 mm 4 m/s 724 mmHg 47%
    13:00 +27°C° 0 mm 4 m/s 724 mmHg 44%
    14:00 +27°C° 0 mm 4 m/s 724 mmHg 45%
    15:00 +27°C° 0 mm 4 m/s 724 mmHg 46%
    16:00 +27°C° 0 mm 4 m/s 724 mmHg 46%
    17:00 +25°C° 0 mm 3 m/s 724 mmHg 52%
    18:00 +22°C° 0 mm 3 m/s 724 mmHg 58%
    19:00 +21°C° 0 mm 2 m/s 724 mmHg 64%
    20:00 +20°C° 0 mm 2 m/s 724 mmHg 66%
    21:00 +19°C° 0 mm 2 m/s 724 mmHg 69%
    22:00 +18°C° 0 mm 2 m/s 725 mmHg 72%
    23:00 +18°C° 0 mm 2 m/s 725 mmHg 73%

    Poimâine, 16 August, Joi

    Timp Temperatura Precipitaţii Vânt Presiune Umiditate
    00:00 +17°C° 0 mm 2 m/s 725 mmHg 75%
    01:00 +17°C° 0 mm 2 m/s 725 mmHg 76%
    02:00 +17°C° 0 mm 2 m/s 725 mmHg 78%
    03:00 +16°C° 0 mm 2 m/s 725 mmHg 79%
    04:00 +16°C° 0 mm 2 m/s 724 mmHg 80%
    05:00 +17°C° 0 mm 2 m/s 725 mmHg 77%
    06:00 +18°C° 0 mm 2 m/s 725 mmHg 73%
    07:00 +19°C° 0 mm 2 m/s 725 mmHg 70%
    08:00 +21°C° 0 mm 2 m/s 725 mmHg 63%
    09:00 +24°C° 0 mm 2 m/s 725 mmHg 57%
    10:00 +26°C° 0 mm 3 m/s 725 mmHg 50%
    11:00 +26°C° 0 mm 2 m/s 725 mmHg 47%
    12:00 +27°C° 0 mm 2 m/s 724 mmHg 45%
    13:00 +27°C° 0 mm 2 m/s 724 mmHg 42%
    14:00 +28°C° 0 mm 2 m/s 724 mmHg 42%
    15:00 +28°C° 0 mm 2 m/s 724 mmHg 42%
    16:00 +28°C° 0 mm 2 m/s 723 mmHg 41%
    17:00 +26°C° 0 mm 1 m/s 723 mmHg 47%
    18:00 +24°C° 0 mm 1 m/s 723 mmHg 53%
    19:00 +22°C° 0 mm 1 m/s 723 mmHg 58%
    20:00 +21°C° 0 mm 1 m/s 723 mmHg 60%
    21:00 +21°C° 0 mm 1 m/s 723 mmHg 62%
    22:00 +20°C° 0 mm 1 m/s 723 mmHg 64%
    23:00 +19°C° 0 mm 1 m/s 723 mmHg 65%

    17 August, Vineri

    Timp Temperatura Precipitaţii Vânt Presiune Umiditate
    00:00 +19°C° 0 mm 1 m/s 723 mmHg 67%
    01:00 +18°C° 0 mm 1 m/s 723 mmHg 69%
    02:00 +18°C° 0 mm 1 m/s 723 mmHg 70%
    03:00 +18°C° 0 mm 1 m/s 722 mmHg 72%
    04:00 +16°C° 0 mm 1 m/s 722 mmHg 73%
    05:00 +17°C° 0 mm 0 m/s 722 mmHg 71%
    06:00 +18°C° 0 mm 0 m/s 723 mmHg 68%
    07:00 +19°C° 0 mm 0 m/s 723 mmHg 65%
    08:00 +21°C° 0 mm 0 m/s 723 mmHg 58%
    09:00 +25°C° 0 mm 1 m/s 723 mmHg 52%
    10:00 +27°C° 0 mm 1 m/s 723 mmHg 45%
    11:00 +28°C° 0 mm 1 m/s 723 mmHg 43%
    12:00 +29°C° 0 mm 1 m/s 723 mmHg 41%
    13:00 +30°C° 0 mm 2 m/s 722 mmHg 38%
    14:00 +30°C° 0 mm 1 m/s 722 mmHg 39%
    15:00 +30°C° 0 mm 1 m/s 722 mmHg 40%
    16:00 +30°C° 0 mm 1 m/s 722 mmHg 41%
    17:00 +28°C° 0,2 mm 1 m/s 722 mmHg 46%
    18:00 +26°C° 0,2 mm 1 m/s 722 mmHg 52%
    19:00 +24°C° 0,2 mm 1 m/s 722 mmHg 57%
    20:00 +23°C° 0,1 mm 1 m/s 722 mmHg 60%
    21:00 +23°C° 0,1 mm 1 m/s 722 mmHg 62%
    22:00 +21°C° 0,1 mm 2 m/s 723 mmHg 65%
    23:00 +21°C° 0,1 mm 2 m/s 723 mmHg 68%

    18 August, Sâmbătă

    Timp Temperatura Precipitaţii Vânt Presiune Umiditate
    00:00 +20°C° 0,1 mm 2 m/s 723 mmHg 70%
    01:00 +20°C° 0,1 mm 3 m/s 723 mmHg 73%
    02:00 +20°C° 0 mm 3 m/s 723 mmHg 74%
    03:00 +20°C° 0 mm 3 m/s 724 mmHg 75%
    04:00 +19°C° 0 mm 3 m/s 724 mmHg 76%
    05:00 +20°C° 0 mm 4 m/s 724 mmHg 75%
    06:00 +20°C° 0 mm 4 m/s 724 mmHg 74%
    07:00 +21°C° 0 mm 4 m/s 725 mmHg 72%
    08:00 +22°C° 0 mm 4 m/s 725 mmHg 68%
    09:00 +23°C° 0 mm 4 m/s 725 mmHg 64%
    10:00 +25°C° 0 mm 4 m/s 726 mmHg 60%
    11:00 +26°C° 0,1 mm 4 m/s 725 mmHg 56%
    12:00 +27°C° 0,1 mm 4 m/s 725 mmHg 53%
    13:00 +28°C° 0,1 mm 4 m/s 725 mmHg 50%
    14:00 +28°C° 0,2 mm 4 m/s 725 mmHg 51%
    15:00 +28°C° 0,2 mm 3 m/s 725 mmHg 51%
    16:00 +28°C° 0,2 mm 3 m/s 725 mmHg 52%
    17:00 +27°C° 0,2 mm 3 m/s 725 mmHg 58%
    18:00 +25°C° 0,2 mm 3 m/s 725 mmHg 64%
    19:00 +22°C° 0,2 mm 3 m/s 725 mmHg 71%
    20:00 +21°C° 0,1 mm 3 m/s 725 mmHg 75%
    21:00 +21°C° 0,1 mm 3 m/s 726 mmHg 78%
    22:00 +20°C° 0,1 mm 3 m/s 726 mmHg 82%
    23:00 +19°C° 0 mm 3 m/s 726 mmHg 83%

    19 August, Duminică

    Timp Temperatura Precipitaţii Vânt Presiune Umiditate
    00:00 +19°C° 0 mm 3 m/s 726 mmHg 84%
    01:00 +19°C° 0 mm 3 m/s 726 mmHg 84%
    02:00 +18°C° 0 mm 3 m/s 726 mmHg 85%
    03:00 +18°C° 0 mm 3 m/s 726 mmHg 86%
    04:00 +18°C° 0 mm 3 m/s 726 mmHg 86%
    05:00 +18°C° 0 mm 3 m/s 726 mmHg 83%
    06:00 +19°C° 0 mm 3 m/s 727 mmHg 79%
    07:00 +20°C° 0 mm 4 m/s 727 mmHg 76%
    08:00 +22°C° 0 mm 4 m/s 727 mmHg 68%
    09:00 +23°C° 0 mm 4 m/s 727 mmHg 60%
    10:00 +26°C° 0 mm 4 m/s 727 mmHg 52%
    11:00 +27°C° 0 mm 4 m/s 727 mmHg 49%
    12:00 +27°C° 0 mm 4 m/s 727 mmHg 46%
    13:00 +28°C° 0 mm 4 m/s 726 mmHg 43%
    14:00 +28°C° 0 mm 4 m/s 726 mmHg 43%
    15:00 +28°C° 0 mm 4 m/s 726 mmHg 43%
    16:00 +28°C° 0 mm 4 m/s 726 mmHg 43%
    17:00 +26°C° 0 mm 3 m/s 726 mmHg 48%
    18:00 +25°C° 0 mm 3 m/s 726 mmHg 53%
    19:00 +23°C° 0 mm 2 m/s 726 mmHg 58%
    20:00 +21°C° 0 mm 2 m/s 726 mmHg 61%
    21:00 +20°C° 0 mm 2 m/s 726 mmHg 64%
    22:00 +19°C° 0 mm 2 m/s 726 mmHg 68%
    23:00 +19°C° 0 mm 2 m/s 726 mmHg 69%
    Arată mai mult